Location: *
(49.7115°N, 15.0136°E)
Time: 02:24:22
(UTC+00:00)

STARLINK-1067 - Pass Details

Date: 27 February 2020
Orbit: 549 x 550 km, 53.0° (Epoch: 03 April)

Event Time Altitude Azimuth Distance (km) Brightness Sun altitude
Rises 17:35:18 0° 222° (SW) 2,709 7.9 -10.0°
Reaches altitude 10° 17:37:36 10° 215° (SW) 1,820 6.8 -10.4°
Maximum altitude 17:41:30 42° 145° (SE) 794 4.2 -11.0°
Enters shadow 17:44:24 17° 80° (E) 1,456 5.1 -11.5°
